This demonstration page uses our WeatherBlox Daily Observations layout. Learn more.

Left ArrowRight Arrow

Hourly Observations for July 6, 2022

Temp ( °F °C ) Dew Point ( °F °C ) Humidity (%) Winds ( mph kmh ) Pressure ( in mb ) Visibility ( mi km ) Precip ( " mm )
12:53 am 00:53 Clear 76 24.4 54 12.2 47 47 S 10 17 29.84 1011 10 16 0.00 0.00
1:53 am 01:53 Clear 73 22.8 54 12.2 51 51 SW 6 9 29.85 1011 10 16 0.00 0.00
2:53 am 02:53 Clear 71 21.7 54 12.2 55 55 SW 5 7 29.86 1011 10 16 0.00 0.00
3:53 am 03:53 Mostly Clear 67 19.4 54 12.2 63 63 NNE 5 7 29.87 1012 10 16 0.00 0.00
4:53 am 04:53 Mostly Cloudy 67 19.4 55 12.8 66 66 E 5 7 29.87 1012 10 16 0.00 0.00
5:53 am 05:53 Cloudy 68 20 55 12.8 63 63 SE 6 9 29.89 1012 10 16 0.00 0.00
6:53 am 06:53 Cloudy 69 20.6 56 13.3 63 63 ESE 3 6 29.90 1012 10 16 0.00 0.00
7:53 am 07:53 Mostly Cloudy 70 21.1 55 12.8 59 59 S 7 11 29.91 1013 10 16 0.00 0.00
8:53 am 08:53 Mostly Cloudy 71 21.7 54 12.2 55 55 SSW 6 9 29.92 1013 10 16 0.00 0.00
9:53 am 09:53 Partly Cloudy 74 23.3 54 12.2 50 50 VRB 3 6 29.91 1013 10 16 0.00 0.00
10:53 am 10:53 Mostly Cloudy 76 24.4 55 12.8 48 48 VRB 3 6 29.90 1013 10 16 0.00 0.00
11:53 am 11:53 Mostly Sunny 80 26.7 52 11.1 38 38 SSW 8 13 29.89 1012 10 16 0.00 0.00
12:53 pm 12:53 Sunny 82 27.8 52 11.1 35 35 S 7 11 29.88 1012 10 16 0.00 0.00
1:53 pm 13:53 Sunny 85 29.4 51 10.6 31 31 SSW 10 17 29.86 1011 10 16 0.00 0.00
2:53 pm 14:53 Sunny 88 31.1 52 11.1 29 29 SSE 15 24 29.84 1011 10 16 0.00 0.00
3:53 pm 15:53 Sunny 87 30.6 51 10.6 29 29 S 12 19 29.83 1010 10 16 0.00 0.00
4:53 pm 16:53 Sunny 88 31.1 50 10 27 27 S 14 22 29.82 1010 10 16 0.00 0.00
5:53 pm 17:53 Sunny 87 30.6 50 10 28 28 SSE 14 22 29.81 1010 10 16 0.00 0.00
6:53 pm 18:53 Sunny 87 30.6 49 9.4 27 27 SSE 14 22 29.81 1010 10 16 0.00 0.00
7:53 pm 19:53 Sunny 85 29.4 49 9.4 29 29 S 9 15 29.81 1010 10 16 0.00 0.00
8:53 pm 20:53 Clear 81 27.2 53 11.7 38 38 S 8 13 29.83 1010 10 16 0.00 0.00
9:53 pm 21:53 Clear 80 26.7 44 6.7 28 28 S 10 17 29.85 1011 10 16 0.00 0.00
10:53 pm 22:53 Clear 78 25.6 50 10 37 37 SSW 9 15 29.86 1011 10 16 0.00 0.00
11:53 pm 23:53 Partly Cloudy 77 25 50 10 39 39 SSW 7 11 29.87 1012 10 16 0.00 0.00

Powered by AerisWeather